Home   Weather   St. Catharines   Past weeks

Flag for Canada Past Weather in St. Catharines, Ontario, Canada — Yesterday and Last 2 Weeks

Now
35 °F

Chilly.


Feels Like: 27 °F
Forecast: 33 / 43 °F
Wind: 9 mph from East

Location: Port Colborne Airport

Current Time: Jan 20, 2017 at 9:14:46 am

Latest Report: Jan 20, 2017 at 8:00 am


Visibility: N/A

Pressure: 29.80 "Hg

Humidity: 93%

Dew Point: 33 °F

Location of St. CatharinesLocation

Past Weather in St. Catharines — Graph

°F

St. Catharines Temperature Yesterday

Maximum temperature yesterday: 35 °F (at 12:00 am)
Minimum temperature yesterday: 31 °F (at 1:00 pm)
Average temperature yesterday: 33 °F

High & Low Weather Summary for the Past Weeks

 TemperatureHumidityPressure
High50 °F (Jan 11, 5:00 pm)100% (Jan 18, 8:00 am)30.78 "Hg (Jan 18, 8:00 am)
Low10 °F (Jan 6, 8:00 am)38% (Jan 11, 5:00 pm)29.55 "Hg (Jan 11, 12:00 am)
Average28 °F74%30.20 "Hg
* Reported Jan 5 8:00 am — Jan 20 8:00 am, St. Catharines, Weather by CustomWeather, © 2017

Note: Actual official high and low records may vary slightly from our data, if they occured in-between our weather recording intervals... More about our weather records

Advertising

St. Catharines Weather History for the Previous 24 Hours

Scroll right to see more
 ConditionsComfort  
Time TempWeatherWind HumidityBarometerVisibility
8:00 am
Fri, Jan 20
35 °FChilly.9 mph93%29.80 "HgN/A
7:00 am35 °FChilly.7 mph94%29.83 "HgN/A
6:00 am34 °FChilly.7 mph95%29.85 "HgN/A
5:00 am34 °FChilly.7 mph91%29.87 "HgN/A
4:00 am34 °FChilly.8 mph90%29.89 "HgN/A
3:00 am34 °FChilly.7 mph92%29.93 "HgN/A
2:00 am33 °FChilly.5 mph95%29.94 "HgN/A
1:00 am33 °FChilly.7 mph95%29.95 "HgN/A
12:00 am33 °FChilly.6 mph95%29.98 "HgN/A
11:00 pm
Thu, Jan 19
33 °FChilly.7 mph94%30.00 "HgN/A
10:00 pm33 °FChilly.3 mph95%30.01 "HgN/A
9:00 pm31 °FChilly.7 mph100%30.02 "HgN/A
8:00 pm33 °FChilly.3 mph94%30.04 "HgN/A
7:00 pm31 °FChilly.3 mph100%30.04 "HgN/A
6:00 pm31 °FChilly.8 mph98%30.06 "HgN/A
5:00 pm33 °FChilly.9 mph91%30.05 "HgN/A
4:00 pm31 °FChilly.8 mph98%30.02 "HgN/A
3:00 pm31 °FChilly.9 mph98%30.02 "HgN/A
2:00 pm31 °FChilly.12 mph98%30.04 "HgN/A
1:00 pm31 °FChilly.9 mph96%30.06 "HgN/A
12:00 pm33 °FChilly.10 mph91%30.09 "HgN/A
11:00 am33 °FChilly.13 mph90%30.12 "HgN/A
10:00 am33 °FChilly.18 mph90%30.12 "HgN/A
9:00 am34 °FChilly.20 mph88%30.11 "HgN/A
Weather by CustomWeather, © 2017

See weather overviewHow to use our weather pages